Location: Hurstbourne Priors
(51.2000°N, 1.3667°W)
Time: 03:32:46
(UTC+00:00)

Cosmos 2084 - Pass Details

Date: 09 April 2020
Orbit: 571 x 612 km, 62.8° (Epoch: 04 June)

Event Time Altitude Azimuth Distance (km) Brightness Sun altitude
Rises 21:50:25 0° 314° (NW) 2,882 8.4 -23.9°
Reaches altitude 10° 21:52:46 10° 320° (NW) 1,971 7.2 -24.1°
Maximum altitude 21:57:06 48° 36° (NE) 794 4.1 -24.5°
Enters shadow 21:57:18 48° 45° (NE) 798 4.1 -24.5°
